"Pseudo-MPEC" for P10N3os

Created 2019 Apr 21 15:07:28 UT using Find_Orb

Click here for an explanation of pseudo-MPECs

 
 Astrometry: 
     P10N3os  C2019 04 07`-05?B]w7USuWW?cPU35_DqJ:V/gxJAstrometryt.B/MG$UVX*4F51
     P10N3os  C2019 04 07iJQ?%Q-n6Qf:Eredacted;B$2t(a(JJ/hq4D(FNpiRG.WR;LBFl\F51
     P10N3os  C2019 04 07lh:XcB?ElD/5owYwCam2nntKFjQh6w%\@s;)p4(X7Q(4d%1LMw@uF51
     P10N3os  C2019 04 09rEvbQdx(clickC[H=P+g4)Q%[Y:E8%Ke#E;uE77vU5XyJ'pThereF51
     P10N3os  C2019 04 092]sfJ!]tGuyL;rVQ=GhmXKU\,%7sbds)hS^KM+'2;)*K5!r#Hu5MF51
     P10N3os  C2019 04 09*rZ0c-LMU;Z:@ay@h16Loaap4c.lm#i3*pm_e'S_i-Y1ro]h1x8EF51
     P10N3os  C2019 04 09=1bKW/+]gNJqx=VcydhK[yCQ7e5Xa,i#1F2]yDapBX'_WEaypwSmF51
     P10N3os  C2019 04 10Nj3j%k+fZ.wZtnqt8Xj5jKNHpj!@gT4oDG_$8DjL,g`5WTNiy=3J691
     P10N3os KC2019 04 10E5A57;kOq6P0:B.^H:%.A;?uCbN`vy+1tuH5w:?I*o3xlB\:\;IW691
     P10N3os KC2019 04 10Vh-y+[9'Zyl.toDK/ctm2.k$*'?fBBDSd+RoflP!EC/?8Sj!p?H]691
     P10N3os  C2019 04 10'9;1t4wpVuIujGHuHGrWfdeV?5OgrVZ4gTHe$Y:NTu*xB,sjSE!?691
     P10N3os KC2019 04 10/fON%;N[u#)?h.x\\,W@^yLXCYWERge';A`1pv`2yj+Ax]#for4i691
     P10N3os  C2019 04 10[.N4Z`2m=WE^BTdge4=Kp;,7min[3)i;#UPpLao1]ve!=P54U6*K691
     P10N3os  C2019 04 10.40056 14 31 16.36 +17 06 17.4    ~4AAI 21.3 GVNEOCPI52
     P10N3os  C2019 04 10.40823 14 31 16.14 +17 06 19.9    ~4AAI 22.0 GVNEOCPI52
     P10N3os  C2019 04 10.41590 14 31 15.92 +17 06 22.6    ~4AAI       VNEOCPI52
     P10N3os  C2019 04 14.30743 14 29 33.06 +17 25 28.8    ~4E83 21.4 GVNEOCPV06
     P10N3os  C2019 04 14.31198 14 29 32.94 +17 25 30.1    ~4E83 21.2 GVNEOCPV06
     P10N3os  C2019 04 14.31653 14 29 32.82 +17 25 31.4    ~4E83 21.2 GVNEOCPV06
     P10N3os  C2019 04 14.32108 14 29 32.70 +17 25 32.7    ~4E83 21.1 GVNEOCPV06
     P10N3os KC2019 04 15vA?5TRsCexplanationG7!AKO\A:?q%A4/0Hd,5vM.Hi9p:L!@!7291
     P10N3os KC2019 04 15;;W2tR)H=.7m5yc+;2uU\UI.Widn^Y%pT1p7Nr9kZQ^o*!4v/J+X291
     P10N3os  C2019 04 16.35022 14 28 37.20 +17 34 53.0    ~4G9X       VNEOCPV06
     P10N3os  C2019 04 16.35855 14 28 36.92 +17 34 56.3    ~4G9X 21.3 GVNEOCPV06
     P10N3os  C2019 04 16.36172 14 28 36.83 +17 34 56.9    ~4G9X 21.2 GVNEOCPV06

Station data:
(291) LPL/Spacewatch II  (N31.961669 W111.599905)  US/Arizona.  Observers J.
   V. Scotti, R. S. McMillan. 1.8-m f/2.7 reflector + CCD.
(691) Steward Observatory, Kitt Peak - Spacewatch  (N31.962174 W111.600327)
   US/Arizona.  Observer J. V. Scotti. 0.9-m f/3 reflector + CCD.
(F51) Pan-STARRS 1, Haleakala  (N20.707235 W156.255910)  US/Hawaii.
   Observers N. Primak, A. Schultz, S. Watters, J. Thiel, T. Goggia. Measurer
   PS1 Science Consortium. 1.8-m Ritchey-Chrétien + CCD.
(I52) Steward Observatory, Mt. Lemmon Station  (N32.442547 W110.788920)
   US/Arizona.  Observers T. A. Pruyne, B. M. Africano, E. J. Christensen, G.
   A. Farneth, D. C. Fuls, A. R. Gibbs, A. D. Grauer, H. Groeller, J. A.
   Johnson, R. A. Kowalski, S. M. Larson, G. J. Leonard, R. L. Seaman, F. C.
   Shelly. 1.0-m reflector + CCD.
(V06) Catalina Sky Survey-Kuiper  (N32.416847 W110.732550)  US/Arizona.
   Observers T. A. Pruyne, B. M. Africano, E. J. Christensen, G. A. Farneth,
   D. C. Fuls, A. R. Gibbs, A. D. Grauer, H. Groeller, J. A. Johnson, R. A.
   Kowalski, S. M. Larson, G. J. Leonard, R. L. Seaman, F. C. Shelly. 1.55-m
   reflector + CCD.

Orbital elements:  P10N3os
   Perihelion 2022 Jul 18.683354 +/- 136 TT = 16:24:01 (JD 2459779.183354)
Epoch 2019 Apr 16.0 TT = JDT 2458589.5   Ju: 0.0439           AutoNEOCP
M 260.68925050 +/- 11               (J2000 ecliptic)
n   0.08347662 +/- 0.000358         Peri.  167.82227 +/- 9
a   5.18512781 +/- 0.0148           Node   147.33034 +/- 0.32
e   0.0462117 +/- 0.0175            Incl.   28.03610 +/- 0.09
P  11.81                   H 14.3   G  0.15   U  7.6  
q 4.94551398 +/- 0.0924    Q 5.42474164 +/- 0.092
24 of 25 observations 2019 Apr. 7-16; mean residual 0".26
Residuals in arcseconds: 
190407 F51  .08-  .10+    190410 691  .08+  .49+    190414 V06  .01+  .15+    
190407 F51  .03-  .09+    190410 691  .38-  .69+    190414 V06  .11+  .16+    
190407 F51  .02+  .04+    190410 691  .26+  .03-    190415 291  .12+  .19-    
190409 F51  .10-  .01+    190410 691  .20-  .07+    190415 291  .15-  .25+    
190409 F51  .06-  .04+    190410 I52  .19+  .55-    190416 V06  .45+  .72-    
190409 F51  .17+  .10+    190410 I52  .04-  .38-    190416 V06  .17-  .33+    
190409 F51  .24+  .26-    190410 I52  .28-  .02-    190416 V06  .18-  .07+    
190410 691  .33+  .50-    190414 V06  .17-  .13+    
190410 691( .47+  .00 )   190414 V06  .08-  .14+    

Ephemerides (geocentric):
Date (UTC) HH   RA              Dec         delta   r     elong  mag " sig PA
---- -- -- --  -------------   -----------  ------ ------ -----  --- ---- ---
2019 04 21 15  14 26 08.519   +17 57 06.75  4.3435 5.2326 149.3 21.6 1.14  31
2019 04 21 16  14 26 07.325   +17 57 16.52  4.3435 5.2326 149.3 21.6 1.15  31
2019 04 21 17  14 26 06.131   +17 57 26.27  4.3435 5.2326 149.3 21.6 1.17  31
2019 04 21 18  14 26 04.936   +17 57 36.01  4.3436 5.2326 149.3 21.6 1.18  31
2019 04 21 19  14 26 03.741   +17 57 45.74  4.3436 5.2326 149.3 21.6 1.19  31
2019 04 21 20  14 26 02.546   +17 57 55.46  4.3436 5.2326 149.3 21.6 1.20  31
2019 04 21 21  14 26 01.351   +17 58 05.16  4.3436 5.2326 149.2 21.6 1.21  31
2019 04 21 22  14 26 00.155   +17 58 14.85  4.3436 5.2325 149.2 21.6 1.22  31
2019 04 21 23  14 25 58.959   +17 58 24.53  4.3437 5.2325 149.2 21.6 1.23  31
2019 04 22 00  14 25 57.763   +17 58 34.19  4.3437 5.2325 149.2 21.6 1.24  31
2019 04 22 01  14 25 56.567   +17 58 43.85  4.3437 5.2325 149.2 21.6 1.26  31
2019 04 22 02  14 25 55.370   +17 58 53.49  4.3437 5.2325 149.2 21.6 1.27  31
2019 04 22 03  14 25 54.173   +17 59 03.12  4.3437 5.2325 149.2 21.6 1.28  31
2019 04 22 04  14 25 52.976   +17 59 12.74  4.3438 5.2325 149.2 21.6 1.29  31
2019 04 22 05  14 25 51.779   +17 59 22.34  4.3438 5.2324 149.2 21.6 1.30  31
2019 04 22 06  14 25 50.582   +17 59 31.93  4.3438 5.2324 149.2 21.6 1.32  31
2019 04 22 07  14 25 49.384   +17 59 41.51  4.3438 5.2324 149.2 21.6 1.33  31
2019 04 22 08  14 25 48.186   +17 59 51.08  4.3439 5.2324 149.2 21.6 1.34  31
2019 04 22 09  14 25 46.988   +18 00 00.63  4.3439 5.2324 149.2 21.6 1.35  30
2019 04 22 10  14 25 45.789   +18 00 10.17  4.3439 5.2324 149.2 21.6 1.36  30
2019 04 22 11  14 25 44.591   +18 00 19.70  4.3439 5.2324 149.2 21.6 1.38  30
2019 04 22 12  14 25 43.392   +18 00 29.22  4.3440 5.2323 149.2 21.6 1.39  30
2019 04 22 13  14 25 42.193   +18 00 38.73  4.3440 5.2323 149.1 21.6 1.40  30
2019 04 22 14  14 25 40.993   +18 00 48.22  4.3440 5.2323 149.1 21.6 1.41  30
2019 04 22 15  14 25 39.794   +18 00 57.70  4.3441 5.2323 149.1 21.6 1.42  30
2019 04 22 16  14 25 38.594   +18 01 07.16  4.3441 5.2323 149.1 21.6 1.44  30
2019 04 22 17  14 25 37.394   +18 01 16.62  4.3441 5.2323 149.1 21.6 1.45  30
2019 04 22 18  14 25 36.194   +18 01 26.06  4.3441 5.2323 149.1 21.6 1.46  30
2019 04 22 19  14 25 34.994   +18 01 35.49  4.3442 5.2323 149.1 21.6 1.47  30
2019 04 22 20  14 25 33.793   +18 01 44.91  4.3442 5.2322 149.1 21.6 1.49  30
2019 04 22 21  14 25 32.592   +18 01 54.31  4.3442 5.2322 149.1 21.6 1.50  30
2019 04 22 22  14 25 31.391   +18 02 03.70  4.3443 5.2322 149.1 21.6 1.51  30
2019 04 22 23  14 25 30.190   +18 02 13.08  4.3443 5.2322 149.1 21.6 1.52  30
2019 04 23 00  14 25 28.989   +18 02 22.45  4.3443 5.2322 149.1 21.6 1.54  30
2019 04 23 01  14 25 27.787   +18 02 31.80  4.3444 5.2322 149.1 21.6 1.55  30
2019 04 23 02  14 25 26.585   +18 02 41.15  4.3444 5.2322 149.1 21.6 1.56  30
2019 04 23 03  14 25 25.383   +18 02 50.47  4.3444 5.2321 149.0 21.6 1.57  30
2019 04 23 04  14 25 24.181   +18 02 59.79  4.3445 5.2321 149.0 21.6 1.59  30
2019 04 23 05  14 25 22.979   +18 03 09.09  4.3445 5.2321 149.0 21.6 1.60  30
2019 04 23 06  14 25 21.776   +18 03 18.39  4.3445 5.2321 149.0 21.6 1.61  30
2019 04 23 07  14 25 20.574   +18 03 27.66  4.3446 5.2321 149.0 21.6 1.63  30
2019 04 23 08  14 25 19.371   +18 03 36.93  4.3446 5.2321 149.0 21.6 1.64  30
2019 04 23 09  14 25 18.167   +18 03 46.18  4.3446 5.2321 149.0 21.6 1.65  30
2019 04 23 10  14 25 16.964   +18 03 55.42  4.3447 5.2320 149.0 21.6 1.67  30
2019 04 23 11  14 25 15.760   +18 04 04.65  4.3447 5.2320 149.0 21.6 1.68  29
2019 04 23 12  14 25 14.557   +18 04 13.87  4.3447 5.2320 149.0 21.6 1.69  29
2019 04 23 13  14 25 13.353   +18 04 23.07  4.3448 5.2320 149.0 21.6 1.71  29
2019 04 23 14  14 25 12.149   +18 04 32.26  4.3448 5.2320 149.0 21.6 1.72  29